DW3560 Weather Reports


time (UTC)temp
C
wind
direction
speed
KPH
gust
KPH
rain 1hr
cm
rain 24hr
cm
rain mn
cm
humidity
%
barometer
mb
20260505212503 12 265 0.0 6.4 0.00 0.25 0.25 92 1014.3
20260505212003 12 236 0.0 1.6 0.00 0.25 0.25 92 1014.3
20260505211503 12 233 0.0 3.2 0.00 0.25 0.25 92 1014.3
20260505211003 12 254 1.6 4.8 0.00 0.25 0.25 92 1014.3
20260505210503 12 279 1.6 4.8 0.00 0.25 0.25 93 1014.3
20260505210003 12 292 0.0 4.8 0.00 0.25 0.25 93 1014.3
20260505205524 12 233 0.0 4.8 0.00 0.25 0.25 93 1014.3
20260505205003 12 226 0.0 4.8 0.00 0.25 0.25 94 1014.3
20260505204503 12 261 0.0 3.2 0.00 0.25 0.25 94 1014.3
20260505204024 12 327 0.0 4.8 0.00 0.25 0.25 94 1014.3
20260505203503 12 356 0.0 4.8 0.00 0.25 0.25 94 1014.3
20260505203024 12 335 0.0 4.8 0.00 0.25 0.25 94 1014.3
20260505202503 12 296 0.0 4.8 0.00 0.25 0.25 94 1014.3
20260505202003 12 251 0.0 4.8 0.00 0.25 0.25 95 1014.3
20260505201503 12 224 0.0 8.0 0.00 0.25 0.25 95 1014.3
20260505201003 12 237 1.6 8.0 0.00 0.25 0.25 94 1014.3
20260505200503 12 298 0.0 6.4 0.00 0.25 0.25 95 1014.3
20260505200024 12 257 0.0 8.0 0.00 0.25 0.25 95 1014.3
20260505195503 12 248 0.0 8.0 0.00 0.25 0.25 95 1014.3
20260505195003 12 263 1.6 4.8 0.00 0.25 0.25 95 1014.3
20260505194524 12 231 1.6 6.4 0.00 0.25 0.25 95 1014.3
20260505194003 12 233 1.6 8.0 0.00 0.25 0.25 95 1014.3
20260505193503 12 242 1.6 8.0 0.00 0.25 0.25 95 1014.3
20260505193003 12 236 1.6 6.4 0.00 0.25 0.25 96 1014.3
20260505192503 12 244 1.6 6.4 0.00 0.25 0.25 95 1014.3
20260505192003 11 253 0.0 4.8 0.00 0.25 0.25 95 1014.3
20260505191503 11 226 0.0 8.0 0.00 0.25 0.25 95 1014.3
20260505191003 11 236 1.6 9.7 0.00 0.25 0.25 95 1014.3
20260505190503 11 238 1.6 9.7 0.00 0.25 0.25 95 1014.3
20260505190024 11 236 0.0 3.2 0.00 0.25 0.25 95 1014.3
20260505185503 12 266 0.0 3.2 0.00 0.25 0.25 95 1014.3
20260505185003 12 251 0.0 4.8 0.00 0.25 0.25 95 1014.3
20260505184503 12 256 1.6 6.4 0.00 0.25 0.25 95 1014.3
20260505184003 12 264 1.6 6.4 0.03 0.25 0.25 96 1014.3
20260505183503 12 256 1.6 8.0 0.03 0.25 0.25 96 1014.3
20260505183024 12 276 1.6 8.0 0.03 0.25 0.25 95 1014.3
20260505182503 12 298 0.0 3.2 0.03 0.25 0.25 96 1014.3
20260505182003 12 239 1.6 4.8 0.03 0.25 0.25 96 1014.3
20260505181503 11 251 1.6 4.8 0.03 0.25 0.25 96 1014.3
20260505181003 11 273 1.6 6.4 0.03 0.25 0.25 95 1014.3
20260505180503 11 261 1.6 6.4 0.03 0.25 0.25 95 1014.3
20260505180003 11 257 0.0 3.2 0.03 0.25 0.25 95 1014.3
20260505175503 11 265 0.0 4.8 0.03 0.25 0.25 95 1014.3
20260505175003 11 289 0.0 4.8 0.03 0.25 0.25 95 1014.3
20260505174503 11 298 1.6 4.8 0.03 0.25 0.25 95 1014.3
20260505174003 11 298 0.0 4.8 0.00 0.23 0.23 95 1014.3
20260505173503 11 340 0.0 4.8 0.00 0.23 0.23 95 1014.3
20260505173003 11 325 0.0 4.8 0.03 0.23 0.23 95 1014.3
20260505172524 11 296 0.0 3.2 0.05 0.23 0.23 95 1014.3
20260505172003 11 297 0.0 4.8 0.08 0.23 0.23 95 1014.3
20260505171503 11 315 1.6 8.0 0.08 0.23 0.23 95 1014.3
20260505171003 11 321 1.6 8.0 0.10 0.23 0.23 95 1014.3
20260505170503 11 309 1.6 9.7 0.13 0.23 0.23 95 1014.3
20260505170003 11 310 1.6 9.7 0.13 0.23 0.23 95 1014.3
20260505165504 11 254 0.0 8.0 0.13 0.23 0.23 95 1014.3
20260505165003 11 233 0.0 8.0 0.13 0.23 0.23 95 1014.3
20260505164503 11 217 1.6 4.8 0.13 0.23 0.23 95 1014.3
20260505164003 11 217 1.6 11.3 0.13 0.23 0.23 95 1014.3
20260505163503 11 248 1.6 11.3 0.13 0.23 0.23 95 1014.3
20260505163003 11 268 1.6 8.0 0.10 0.20 0.20 95 1014.3
20260505162524 11 252 0.0 6.4 0.08 0.18 0.18 94 1014.3
20260505162003 11 234 0.0 9.7 0.05 0.15 0.15 94 1014.3
20260505161503 11 231 0.0 6.4 0.05 0.15 0.15 94 1014.3
20260505161003 11 231 0.0 3.2 0.03 0.13 0.13 94 1014.3
20260505160524 11 230 0.0 3.2 0.00 0.10 0.10 94 1014.3
20260505153003 10 229 0.0 1.6 0.00 0.10 0.10 94 1014.3
20260505152504 10 229 0.0 1.6 0.00 0.10 0.10 94 1014.3
20260505152003 10 229 0.0 4.8 0.00 0.10 0.10 94 1014.3
20260505151503 10 228 0.0 4.8 0.00 0.10 0.10 94 1014.3
20260505151003 10 227 0.0 4.8 0.00 0.10 0.10 94 1014.3
20260505150503 10 225 0.0 4.8 0.00 0.10 0.10 94 1014.3
20260505140503 10 219 1.6 3.2 0.00 0.10 0.10 94 1014.3
20260505125003 10 221 1.6 4.8 0.03 0.10 0.10 93 1014.3
20260505124524 10 221 1.6 6.4 0.03 0.10 0.10 93 1014.3
20260505124003 10 221 1.6 6.4 0.03 0.10 0.10 93 1014.3
20260505123503 10 221 0.0 4.8 0.03 0.10 0.10 93 1014.3
20260505123003 10 222 1.6 4.8 0.03 0.10 0.10 93 1014.3
20260505122503 10 222 1.6 4.8 0.05 0.10 0.10 93 1014.3
20260505122003 10 222 0.0 3.2 0.05 0.10 0.10 93 1014.3
20260505121503 10 224 0.0 3.2 0.05 0.10 0.10 93 1014.3
20260505121003 10 224 0.0 3.2 0.05 0.10 0.10 93 1014.3
20260505120503 10 223 0.0 4.8 0.03 0.08 0.08 93 1014.3
20260505120001 10 222 1.6 4.8 0.03 0.08 0.08 93 1014.3
20260505115501 10 221 0.0 3.2 0.03 0.08 0.08 93 1014.3
20260505115001 10 221 0.0 3.2 0.03 0.08 0.08 93 1014.3
20260505114501 10 218 1.6 4.8 0.03 0.08 0.08 93 1014.3
20260505114022 10 215 1.6 4.8 0.03 0.08 0.08 93 1014.3
20260505113501 10 212 0.0 3.2 0.03 0.08 0.08 93 1014.3
20260505113001 10 211 0.0 1.6 0.03 0.08 0.08 93 1014.3
20260505112522 10 211 0.0 1.6 0.00 0.05 0.08 93 1014.3
20260505112022 10 211 0.0 1.6 0.03 0.05 0.05 93 1014.3
20260505111522 10 211 0.0 1.6 0.03 0.05 0.05 93 1014.3
20260505111001 10 211 0.0 1.6 0.03 0.05 0.05 93 1014.3
20260505110501 10 211 0.0 1.6 0.05 0.05 0.05 93 1014.3
20260505102001 10 235 1.6 4.8 0.03 0.03 0.03 92 1014.6
20260505101501 10 236 0.0 3.2 0.03 0.03 0.03 91 1014.6
20260505101002 10 235 0.0 3.2 0.03 0.03 0.03 92 1014.6
20260505100502 10 234 0.0 3.2 0.00 0.00 0.00 92 1014.6
20260505100001 10 228 0.0 1.6 0.00 0.00 0.00 92 1014.6
20260505095501 10 228 0.0 3.2 0.00 0.00 0.00 91 1014.6
20260505095002 10 228 0.0 4.8 0.00 0.00 0.00 91 1014.6
20260505094501 10 227 0.0 4.8 0.00 0.00 0.00 91 1014.6
20260505094001 10 227 0.0 4.8 0.00 0.00 0.00 91 1014.6
20260505093501 10 223 0.0 3.2 0.00 0.00 0.00 91 1014.6
20260505093001 10 214 0.0 3.2 0.00 0.00 0.00 91 1014.6
20260505092502 10 198 0.0 3.2 0.00 0.00 0.00 91 1014.6
20260505092022 10 198 0.0 3.2 0.00 0.00 0.00 90 1014.6
20260505091502 10 198 0.0 1.6 0.00 0.00 0.00 91 1014.6
20260505091023 10 0 0.0 0.0 0.00 0.00 0.00 90 1014.6
20260505090523 10 198 0.0 3.2 0.00 0.00 0.00 90 1014.6
20260505090002 10 198 0.0 3.2 0.00 0.00 0.00 90 1014.6
20260505085501 10 195 0.0 3.2 0.00 0.00 0.00 90 1014.6
20260505085002 10 206 1.6 6.4 0.00 0.00 0.00 90 1014.6
20260505084501 10 214 1.6 6.4 0.00 0.00 0.00 90 1014.6
20260505084023 10 228 0.0 4.8 0.00 0.00 0.00 90 1014.6
20260505083502 10 232 1.6 4.8 0.00 0.00 0.00 89 1014.6
20260505083001 10 237 1.6 4.8 0.00 0.00 0.00 89 1014.6
20260505082522 10 251 1.6 4.8 0.00 0.00 0.00 89 1014.6
20260505082001 10 296 0.0 4.8 0.00 0.00 0.00 89 1014.6
20260505081502 10 330 0.0 3.2 0.00 0.00 0.00 89 1014.6
20260505081023 10 331 0.0 1.6 0.00 0.00 0.00 89 1014.6
20260505080501 10 331 0.0 1.6 0.00 0.00 0.00 89 1014.6
20260505080002 10 331 0.0 1.6 0.00 0.00 0.00 88 1014.6
20260505075523 10 332 0.0 1.6 0.00 0.00 0.00 89 1014.6
20260505075002 10 333 0.0 1.6 0.00 0.00 0.00 88 1014.6
20260505074501 10 333 0.0 1.6 0.00 0.00 0.00 88 1014.6
20260505074002 10 332 0.0 3.2 0.00 0.00 0.00 88 1014.6
20260505073522 10 335 0.0 6.4 0.00 0.00 0.00 87 1014.6
20260505073002 10 341 1.6 6.4 0.00 0.00 0.00 87 1014.6
20260505072502 10 343 1.6 6.4 0.00 0.00 0.00 87 1014.6
20260505072002 10 346 3.2 8.0 0.00 0.00 0.00 87 1014.6
20260505071501 10 351 1.6 8.0 0.00 0.00 0.00 87 1014.6
20260505071001 10 359 1.6 8.0 0.00 0.00 0.00 86 1014.6
20260505070523 10 7 0.0 4.8 0.00 0.00 0.00 86 1014.6
20260505070005 11 348 1.6 9.7 0.00 0.00 0.00 86 1014.6
20260505065502 11 339 1.6 9.7 0.00 0.00 0.00 86 1014.6
20260505065023 11 348 0.0 3.2 0.00 0.00 0.00 86 1014.6
20260505064501 11 345 0.0 3.2 0.00 0.00 0.00 86 1014.6
20260505064001 11 340 1.6 9.7 0.00 0.00 0.00 85 1014.6
20260505063501 11 339 1.6 9.7 0.00 0.00 0.00 85 1014.6
20260505063001 11 342 0.0 3.2 0.00 0.00 0.00 85 1014.6
20260505062501 11 341 0.0 1.6 0.00 0.00 0.00 85 1014.6
20260505062001 11 341 0.0 1.6 0.00 0.00 0.00 85 1014.6
20260505061501 11 340 0.0 3.2 0.00 0.00 0.00 85 1014.6
20260505061023 11 337 0.0 3.2 0.00 0.00 0.00 84 1014.6
20260505060502 11 344 0.0 3.2 0.00 0.00 0.00 84 1014.6
20260505060002 11 4 0.0 3.2 0.00 0.00 0.00 84 1014.6
20260505055522 11 4 0.0 1.6 0.00 0.00 0.00 84 1014.6
20260505055001 11 0 0.0 0.0 0.00 0.00 0.00 85 1014.6
20260505054502 11 0 0.0 0.0 0.00 0.00 0.00 85 1014.6
20260505054001 11 350 0.0 3.2 0.00 0.00 0.00 85 1014.6
20260505053523 11 349 0.0 3.2 0.00 0.00 0.00 85 1014.6
20260505053002 11 347 0.0 3.2 0.00 0.00 0.00 85 1014.6
20260505052501 11 349 0.0 1.6 0.00 0.00 0.00 85 1014.7
20260505052023 11 351 0.0 3.2 0.00 0.00 0.00 85 1014.8
20260505051502 11 352 0.0 3.2 0.00 0.00 0.00 85 1015.1
20260505051002 11 354 0.0 3.2 0.00 0.00 0.00 85 1015.3
20260505050502 11 9 0.0 3.2 0.00 0.00 0.00 85 1015.3
20260505041502 11 7 0.0 3.2 0.00 0.00 0.00 84 1014.3
20260505041001 11 5 0.0 1.6 0.00 0.00 0.00 84 1014.3
20260505040501 11 10 0.0 1.6 0.00 0.00 0.00 83 1014.3
20260505040002 11 8 0.0 3.2 0.00 0.00 0.00 83 1014.3
20260505035501 11 8 0.0 3.2 0.00 0.00 0.00 83 1014.3
20260505035001 11 13 0.0 3.2 0.00 0.00 0.00 83 1014.3
20260505034501 11 16 0.0 3.2 0.00 0.00 0.00 83 1014.3
20260505034002 11 23 0.0 1.6 0.00 0.00 0.00 82 1014.3
20260505033502 11 17 0.0 4.8 0.00 0.00 0.00 82 1014.3
20260505033023 12 360 0.0 4.8 0.00 0.00 0.00 82 1014.3
20260505032502 12 331 0.0 1.6 0.00 0.00 0.00 82 1014.3
20260505032023 12 322 0.0 3.2 0.00 0.00 0.00 82 1014.3
20260505031502 12 22 0.0 3.2 0.00 0.00 0.00 82 1014.3
20260505031002 12 8 0.0 4.8 0.00 0.00 0.00 82 1014.2
20260505030502 12 336 0.0 4.8 0.00 0.00 0.00 82 1014.2
20260505030003 12 319 0.0 6.4 0.00 0.00 0.00 82 1014.2
20260505025502 12 328 1.6 6.4 0.00 0.00 0.00 82 1014.2
20260505025001 12 313 0.0 6.4 0.00 0.00 0.00 82 1014.2
20260505024502 12 272 0.0 4.8 0.00 0.00 0.00 82 1014.2
20260505024002 12 317 0.0 3.2 0.00 0.00 0.00 82 1014.2
20260505023523 12 312 0.0 8.0 0.00 0.00 0.00 82 1014.2
20260505023023 12 314 0.0 8.0 0.00 0.00 0.00 83 1014.2
20260505022502 12 327 0.0 3.2 0.00 0.00 0.00 82 1014.2
20260505022002 13 338 0.0 4.8 0.00 0.00 0.00 82 1014.2
20260505021502 13 336 0.0 14.5 0.00 0.00 0.00 82 1014.2
20260505021002 13 329 0.0 14.5 0.00 0.00 0.00 82 1014.6
20260505020502 13 319 0.0 4.8 0.00 0.00 0.00 81 1014.6
20260505020002 13 325 0.0 4.8 0.00 0.00 0.00 81 1014.6
20260505015502 13 328 0.0 4.8 0.00 0.00 0.00 81 1014.6
20260505015002 13 241 0.0 4.8 0.00 0.00 0.00 81 1014.6
20260505014502 13 342 0.0 6.4 0.00 0.00 0.00 80 1014.6
20260505014002 13 355 0.0 6.4 0.00 0.00 0.00 80 1014.6
20260505013502 13 345 1.6 6.4 0.00 0.00 0.00 79 1014.6
20260505013002 13 339 1.6 6.4 0.00 0.00 0.00 79 1014.6
20260505012502 13 286 0.0 4.8 0.00 0.00 0.00 78 1014.6
20260505012001 13 336 0.0 4.8 0.00 0.00 0.00 78 1014.6
20260505011502 13 352 0.0 6.4 0.00 0.00 0.00 77 1014.6
20260505011002 13 353 1.6 9.7 0.00 0.00 0.00 76 1014.9
20260505010502 13 349 1.6 9.7 0.00 0.00 0.00 76 1014.9
20260505010002 14 341 3.2 17.7 0.00 0.00 0.00 75 1014.9
20260505005502 14 339 3.2 17.7 0.00 0.00 0.00 74 1014.9
20260505005002 14 336 0.0 4.8 0.00 0.00 0.00 74 1014.9
20260505004502 14 5 1.6 6.4 0.00 0.00 0.00 74 1014.9
20260505004023 15 7 1.6 9.7 0.00 0.00 0.00 73 1014.9
20260505003502 15 352 1.6 9.7 0.00 0.00 0.00 73 1014.9
20260505003023 15 351 1.6 4.8 0.00 0.00 0.00 72 1014.9
20260505002502 15 343 1.6 8.0 0.00 0.00 0.00 70 1014.9
20260505002002 15 354 1.6 8.0 0.00 0.00 0.00 69 1014.9
20260505001502 15 2 1.6 6.4 0.00 0.00 0.00 69 1014.9
20260505001002 15 357 1.6 6.4 0.00 0.00 0.00 69 1014.7
20260505000502 15 309 1.6 8.0 0.00 0.00 0.00 68 1014.7
20260505000002 15 274 1.6 8.0 0.00 0.00 0.00 67 1014.7
20260504235502 15 338 1.6 8.0 0.00 0.00 0.00 67 1014.7
20260504235002 15 350 1.6 8.0 0.00 0.00 0.00 65 1014.7
20260504234502 16 350 1.6 8.0 0.00 0.00 0.00 64 1014.7
20260504234023 16 330 1.6 8.0 0.00 0.00 0.00 65 1014.7
20260504233523 16 331 1.6 8.0 0.00 0.00 0.00 65 1014.7
20260504233002 16 354 1.6 14.5 0.00 0.00 0.00 65 1014.7
20260504232502 16 330 1.6 14.5 0.00 0.00 0.00 64 1014.7
20260504232002 16 314 1.6 14.5 0.00 0.00 0.00 64 1014.7
20260504231502 16 343 3.2 14.5 0.00 0.00 0.00 64 1014.7
20260504231002 16 350 1.6 14.5 0.00 0.00 0.00 64 1014.9
20260504230502 16 329 3.2 9.7 0.00 0.00 0.00 65 1014.9
20260504230002 16 329 3.2 14.5 0.00 0.00 0.00 64 1014.9
20260504225523 16 315 3.2 14.5 0.00 0.00 0.00 64 1014.9
20260504225002 17 248 1.6 6.4 0.00 0.00 0.00 66 1014.9
20260504224523 16 207 1.6 6.4 0.00 0.00 0.00 65 1014.9
20260504224002 16 168 1.6 9.7 0.00 0.00 0.00 66 1014.9
20260504223502 16 268 1.6 9.7 0.00 0.00 0.00 66 1014.9
20260504223002 16 244 1.6 8.0 0.00 0.00 0.00 66 1014.9
20260504222502 16 296 1.6 8.0 0.00 0.00 0.00 67 1014.9
20260504222002 16 295 1.6 11.3 0.00 0.00 0.00 67 1014.9
20260504221502 16 302 1.6 12.9 0.00 0.00 0.00 67 1014.9
20260504221002 16 281 1.6 12.9 0.00 0.00 0.00 67 1015.0
20260504220502 16 319 1.6 9.7 0.00 0.00 0.00 67 1015.0
20260504220002 16 318 1.6 9.7 0.00 0.00 0.00 66 1015.0
20260504215523 16 314 1.6 8.0 0.00 0.00 0.00 65 1015.0
20260504215002 16 339 1.6 8.0 0.00 0.00 0.00 66 1015.0
20260504214502 16 323 1.6 6.4 0.00 0.00 0.00 67 1015.0
20260504214002 16 292 3.2 8.0 0.00 0.00 0.00 67 1015.0
20260504213523 16 254 3.2 8.0 0.00 0.00 0.00 66 1015.0
20260504213023 16 239 3.2 11.3 0.00 0.00 0.00 66 1015.0